DW1920 Weather Reports


Display with metric or nautical units.
time (UTC)temp
F
wind
direction
speed
MPH
gust
MPH
rain 1hr
in
rain 24hr
in
rain mn
in
humidity
%
barometer
mb
20260505215003 52 196 32.0 38.0 0.00 0.00 0.00 84 1003.5
20260505214003 52 195 32.0 38.0 0.00 0.00 0.00 84 1003.7
20260505213003 53 195 30.0 37.0 0.00 0.00 0.00 83 1004.0
20260505212003 53 191 30.0 37.0 0.00 0.00 0.00 83 1003.7
20260505211003 53 195 30.0 36.0 0.00 0.00 0.00 83 1003.9
20260505210024 53 195 30.0 37.0 0.00 0.00 0.00 83 1003.9
20260505205003 53 194 28.0 34.0 0.00 0.00 0.00 83 1003.8
20260505204024 53 194 29.0 36.0 0.00 0.00 0.00 83 1003.8
20260505203002 53 195 30.0 35.0 0.00 0.00 0.00 83 1003.8
20260505202003 53 194 30.0 36.0 0.00 0.00 0.00 84 1003.9
20260505201002 53 192 30.0 36.0 0.00 0.00 0.00 84 1004.0
20260505200003 53 196 28.0 34.0 0.00 0.00 0.00 85 1004.2
20260505195002 52 195 28.0 33.0 0.00 0.00 0.00 85 1004.4
20260505194003 52 197 25.0 29.0 0.00 0.00 0.00 85 1004.4
20260505193003 52 194 23.0 29.0 0.00 0.00 0.00 84 1004.7
20260505192024 52 195 22.0 29.0 0.00 0.00 0.00 85 1005.0
20260505191003 52 198 24.0 27.0 0.00 0.00 0.00 84 1005.2
20260505190023 53 199 23.0 27.0 0.00 0.00 0.00 85 1005.2
20260505185024 52 206 20.0 25.0 0.00 0.00 0.00 84 1005.3
20260505184002 52 202 19.0 25.0 0.00 0.00 0.00 85 1005.4
20260505183003 52 198 21.0 26.0 0.00 0.00 0.00 85 1005.4
20260505182002 52 198 20.0 24.0 0.00 0.00 0.00 85 1005.4
20260505181003 52 198 20.0 23.0 0.00 0.00 0.00 85 1005.5
20260505180002 52 195 19.0 23.0 0.00 0.00 0.00 85 1005.7
20260505175024 52 193 17.0 21.0 0.00 0.00 0.00 85 1005.9
20260505174003 52 195 18.0 24.0 0.00 0.00 0.00 85 1006.3
20260505173024 52 193 21.0 24.0 0.00 0.00 0.00 85 1006.4
20260505172003 52 201 16.0 18.0 0.00 0.00 0.00 85 1006.5
20260505171045 52 202 15.0 20.0 0.00 0.00 0.00 85 1006.6
20260505170003 52 204 16.0 21.0 0.00 0.00 0.00 85 1006.7
20260505165002 53 207 12.0 15.0 0.00 0.00 0.00 85 1007.0
20260505164003 53 224 8.0 10.0 0.00 0.00 0.00 86 1007.3
20260505163003 53 236 4.0 9.0 0.00 0.00 0.00 86 1007.5
20260505162003 53 218 7.0 12.0 0.00 0.00 0.00 87 1007.6
20260505161003 52 227 7.0 12.0 0.00 0.00 0.00 87 1007.7
20260505153024 50 223 12.0 16.0 0.00 0.00 0.00 89 1008.0
20260505152003 49 212 13.0 20.0 0.00 0.00 0.00 88 1008.0
20260505151002 50 205 17.0 20.0 0.00 0.00 0.00 87 1007.7
20260505125003 49 209 8.0 11.0 0.00 0.00 0.00 90 1008.1
20260505124002 48 216 7.0 11.0 0.00 0.00 0.00 90 1008.0
20260505123003 48 211 8.0 11.0 0.00 0.00 0.00 90 1007.9
20260505122002 48 218 8.0 13.0 0.00 0.00 0.00 90 1007.9
20260505121003 48 221 10.0 12.0 0.00 0.00 0.00 90 1008.0
20260505120003 47 226 7.0 10.0 0.00 0.00 0.00 90 1008.1
20260505115003 47 221 8.0 10.0 0.00 0.00 0.00 90 1008.0
20260505114024 47 221 6.0 14.0 0.00 0.00 0.00 90 1008.2
20260505113003 47 222 9.0 18.0 0.00 0.00 0.00 90 1008.2
20260505112024 47 211 14.0 18.0 0.00 0.00 0.00 91 1008.3
20260505111002 46 230 5.0 10.0 0.00 0.00 0.00 91 1008.3
20260505102003 46 220 7.0 11.0 0.00 0.00 0.00 90 1007.9
20260505101003 46 226 8.0 12.0 0.00 0.00 0.00 90 1008.0
20260505100004 46 241 5.0 10.0 0.00 0.00 0.00 90 1007.9
20260505095003 46 241 4.0 11.0 0.00 0.00 0.00 90 1008.0
20260505094003 46 227 8.0 12.0 0.00 0.00 0.00 90 1008.0
20260505093003 46 244 5.0 10.0 0.00 0.00 0.00 90 1007.9
20260505092003 46 244 5.0 10.0 0.00 0.00 0.00 89 1007.7
20260505091003 46 250 6.0 10.0 0.00 0.00 0.00 90 1007.7
20260505090024 46 244 6.0 10.0 0.00 0.00 0.00 90 1007.9
20260505085003 46 242 6.0 10.0 0.00 0.00 0.00 89 1007.8
20260505084003 46 236 7.0 14.0 0.00 0.00 0.00 89 1007.9
20260505083002 46 246 5.0 10.0 0.00 0.00 0.00 89 1007.9
20260505082003 46 255 7.0 14.0 0.00 0.00 0.00 89 1008.0
20260505081003 46 258 9.0 14.0 0.00 0.00 0.00 89 1008.0
20260505080003 46 254 8.0 14.0 0.00 0.00 0.00 89 1008.0
20260505075003 46 252 5.0 10.0 0.00 0.00 0.00 89 1008.0
20260505074024 46 257 8.0 12.0 0.00 0.00 0.00 89 1007.8
20260505073003 46 256 5.0 10.0 0.00 0.00 0.00 88 1007.8
20260505072045 46 253 6.0 10.0 0.00 0.00 0.00 88 1007.8
20260505071024 46 241 7.0 10.0 0.00 0.00 0.00 88 1007.7
20260505070024 46 242 5.0 10.0 0.00 0.00 0.00 88 1007.7
20260505065003 47 254 7.0 12.0 0.00 0.00 0.00 88 1007.7
20260505064002 46 257 6.0 11.0 0.00 0.00 0.00 88 1007.7
20260505063003 46 248 5.0 9.0 0.00 0.00 0.00 88 1007.8
20260505062003 46 233 7.0 11.0 0.00 0.00 0.00 87 1007.8
20260505061002 47 246 6.0 10.0 0.00 0.00 0.00 87 1007.7
20260505060002 47 248 6.0 10.0 0.00 0.00 0.00 87 1007.7
20260505055003 47 250 5.0 10.0 0.00 0.00 0.00 86 1007.8
20260505054024 47 247 6.0 11.0 0.00 0.00 0.00 86 1007.8
20260505053003 47 248 6.0 11.0 0.00 0.00 0.00 85 1007.8
20260505052003 47 241 7.0 11.0 0.00 0.00 0.00 85 1007.7
20260505051023 48 252 8.0 12.0 0.00 0.00 0.00 85 1007.7
20260505041002 48 233 10.0 16.0 0.00 0.00 0.00 83 1007.1
20260505040003 49 243 8.0 13.0 0.00 0.00 0.00 82 1007.3
20260505035003 49 241 7.0 14.0 0.00 0.00 0.00 81 1007.1
20260505034003 49 254 9.0 14.0 0.00 0.00 0.00 82 1007.0
20260505033024 49 245 7.0 14.0 0.00 0.00 0.00 82 1006.9
20260505032024 49 247 8.0 15.0 0.00 0.00 0.00 82 1006.7
20260505031002 49 240 8.0 15.0 0.00 0.00 0.00 81 1006.7
20260505030003 50 250 7.0 13.0 0.00 0.00 0.00 81 1006.8
20260505025002 50 257 8.0 16.0 0.00 0.00 0.00 80 1006.7
20260505024003 50 250 8.0 17.0 0.00 0.00 0.00 80 1006.7
20260505023003 50 256 10.0 19.0 0.00 0.00 0.00 80 1006.6
20260505022002 51 256 12.0 22.0 0.00 0.00 0.00 80 1006.6
20260505021003 51 252 13.0 20.0 0.00 0.00 0.00 80 1006.6
20260505020045 50 255 11.0 17.0 0.00 0.00 0.00 81 1006.6
20260505015023 50 250 10.0 16.0 0.00 0.00 0.00 82 1006.5
20260505014003 49 254 11.0 17.0 0.00 0.00 0.00 83 1006.5
20260505013002 49 247 8.0 15.0 0.00 0.00 0.00 83 1006.4
20260505012003 49 247 8.0 14.0 0.00 0.00 0.00 83 1006.3
20260505011024 49 250 9.0 16.0 0.00 0.00 0.00 83 1006.3
20260505010002 48 253 7.0 13.0 0.00 0.00 0.00 83 1006.3
20260505005024 48 249 6.0 10.0 0.00 0.00 0.00 84 1006.1
20260505004003 48 235 7.0 13.0 0.00 0.00 0.00 84 1005.8
20260505003002 47 230 7.0 12.0 0.00 0.00 0.00 84 1005.8
20260505002003 47 231 7.0 10.0 0.00 0.00 0.00 84 1005.7
20260505001003 48 247 4.0 8.0 0.00 0.00 0.00 84 1005.7
20260505000003 47 231 6.0 10.0 0.00 0.00 0.00 84 1005.6
20260504235003 47 241 4.0 10.0 0.00 0.00 0.00 83 1005.5
20260504234023 48 205 10.0 11.0 0.00 0.00 0.00 83 1005.3
20260504233003 48 208 8.0 10.0 0.00 0.00 0.00 81 1005.2
20260504232002 49 217 4.0 8.0 0.00 0.00 0.00 81 1005.3
20260504231003 49 205 4.0 8.0 0.00 0.00 0.00 81 1005.2
20260504230003 49 200 4.0 10.0 0.00 0.00 0.00 82 1004.9
20260504225002 49 195 8.0 11.0 0.00 0.00 0.00 81 1004.9
20260504224003 49 208 8.0 10.0 0.00 0.00 0.00 81 1004.7
20260504223002 49 216 5.0 9.0 0.00 0.00 0.00 80 1004.7
20260504222003 50 216 4.0 9.0 0.00 0.00 0.00 80 1004.7
20260504221003 50 209 6.0 10.0 0.00 0.00 0.00 79 1004.9
20260504220003 50 211 3.0 9.0 0.00 0.00 0.00 78 1004.8